{"data":{"norad_id":67742,"intl_designator":"2026-026X","name":"STARLINK-36693","alt_names":[],"object_type":"PAYLOAD","status":"ACTIVE","operator":null,"country":"US","launch_date":"2026-02-11","launch_site_code":"AFWTR","launch_vehicle":null,"mission":null,"orbit_class":"UNKNOWN","rcs_meters":null,"size_class":null,"mass_kg":null,"dimensions":null,"purposes":["comms"],"wikipedia_slug":null,"has_3d_model":false,"image_url":null,"decayed_at":null,"tle_current":{"epoch":"2026-09-19T09:22:20.299872Z","epoch_age_seconds":162339,"freshness":"FRESH","line1":"1 67742U 26026X   26262.39051273  .00011079  00000+0  34486-3 0  9995","line2":"2 67742  97.2829 314.2908 0000586 206.8100 153.3113 15.33457393 33813","mean_motion":15.33457393,"eccentricity":5.86e-5,"inclination_deg":97.2829,"raan_deg":314.2908,"arg_perigee_deg":206.81,"mean_anomaly_deg":153.3113,"bstar":0.00034486,"rev_number":3381,"period_min":93.905445731546,"perigee_km":465.10526438019,"apogee_km":465.90733937517,"semimajor_km":6843.6433018777,"source":"CELESTRAK","updated_at":"2026-09-20T09:00:43.660809Z"}}}